Location: Chillicothe
(39.7950°N, 93.5520°W)
Time: 03:21:53
(UTC-05:00)

Vanguard 3 - All Passes

Search period start: 21 October 2019 00:00
Search period end: 31 October 2019 00:00
Orbit: 508 x 3262 km, 33.3° (Epoch: 20 October)

Date Brightness Start Highest point End Pass type
(mag) Time Alt. Az. Time Alt. Az. Time Alt. Az.
21 Oct - 00:34:34 10° SW 00:37:34 21° SSE 00:40:29 10° ESE night (unlit)
21 Oct - 02:44:58 10° WSW 02:48:23 35° S 02:52:46 10° ESE night (unlit)
21 Oct - 04:55:46 10° WSW 04:59:39 25° SSW 05:05:15 10° SE visible
21 Oct - 07:09:44 10° SW 07:11:49 11° SSW 07:14:10 10° S daylight
21 Oct - 23:21:36 10° SSW 23:24:09 15° SSE 23:26:24 10° SE night (unlit)
22 Oct - 01:31:44 10° WSW 01:35:02 31° S 01:38:34 10° ESE night (unlit)
22 Oct - 03:42:30 10° WSW 03:46:00 29° S 03:50:43 10° SE visible
22 Oct - 05:54:26 10° SW 05:57:37 15° SSW 06:01:40 10° SSE visible
22 Oct - 22:09:36 10° S 22:10:30 10° SSE 22:11:21 10° SSE night (unlit)
23 Oct - 00:18:17 10° SW 00:21:42 25° S 00:24:46 10° ESE night (unlit)
23 Oct - 02:29:15 10° WSW 02:32:33 31° S 02:36:28 10° ESE night (unlit)
23 Oct - 04:40:31 10° WSW 04:43:44 19° SSW 04:47:57 10° SSE visible
23 Oct - 23:04:39 10° SSW 23:08:14 20° SSE 23:11:09 10° ESE night (unlit)
24 Oct - 01:15:46 10° WSW 01:19:12 32° S 01:22:36 10° ESE night (unlit)
24 Oct - 03:27:00 10° WSW 03:30:08 23° S 03:34:01 10° SE visible
24 Oct - 21:51:05 10° SSW 21:54:34 15° SSE 21:57:21 10° SE visible
25 Oct - 00:01:56 10° SW 00:05:51 29° S 00:09:06 10° ESE night (unlit)
25 Oct - 02:13:30 10° WSW 02:16:43 28° S 02:20:13 10° SE night (unlit)
25 Oct - 04:25:34 10° SW 04:27:49 14° SSW 04:30:28 10° SSE visible
25 Oct - 20:38:17 10° S 20:40:37 12° SSE 20:42:39 10° SE visible
25 Oct - 22:47:46 10° SW 22:52:21 25° S 22:55:46 10° ESE night (unlit)
26 Oct - 00:59:43 10° WSW 01:03:22 32° S 01:06:43 10° ESE night (unlit)
26 Oct - 03:11:33 10° WSW 03:14:14 19° SSW 03:17:20 10° SSE night (unlit)
26 Oct - 21:33:28 10° SSW 21:38:38 21° SSE 21:42:21 10° ESE visible
26 Oct - 23:45:31 10° WSW 23:50:00 33° S 23:53:27 10° ESE night (unlit)
27 Oct - 01:57:42 10° WSW 02:00:51 25° SSW 02:04:03 10° SE night (unlit)
27 Oct - 20:19:22 10° SSW 20:24:36 17° SSE 20:28:31 10° ESE visible
27 Oct - 22:30:53 10° SW 22:36:27 31° S 22:40:19 10° ESE visible
28 Oct - 00:43:36 10° WSW 00:47:32 33° S 00:50:52 10° ESE night (unlit)
28 Oct - 02:56:12 10° SW 02:58:19 15° SSW 03:00:36 10° SSE night (unlit)
28 Oct - 19:06:16 10° S 19:10:14 13° SSE 19:13:30 10° SE visible
28 Oct - 21:16:00 10° SW 21:22:40 27° SSE 21:27:05 10° ESE visible
28 Oct - 23:29:01 10° WSW 23:34:07 37° S 23:37:48 10° ESE night (unlit)
29 Oct - 01:41:50 10° WSW 01:44:58 22° SSW 01:47:56 10° SE night (unlit)
29 Oct - 20:01:08 10° SSW 20:08:32 23° SSE 20:13:34 10° ESE visible
29 Oct - 22:13:58 10° WSW 22:20:32 37° S 22:24:48 10° ESE visible
30 Oct - 00:27:22 10° WSW 00:31:40 33° S 00:35:03 10° SE night (unlit)
30 Oct - 02:41:09 10° SW 02:42:21 11° SSW 02:43:33 10° S night (unlit)
30 Oct - 18:46:50 10° SSW 18:54:02 18° SSE 18:59:20 10° ESE visible
30 Oct - 20:58:33 10° SW 21:06:39 34° SSE 21:11:42 10° ESE visible
30 Oct - 23:12:26 10° WSW 23:18:15 41° S 23:22:10 10° ESE visible
